Tracking 19242 objects as of 15-Aug-2018
HD Live streaming from Space Station
objects crossing your sky now

IRIDIUM 18

Track IRIDIUM 18 now!
10-day predictions
IRIDIUM 18 is classified as:


NORAD ID: 24872
Int'l Code: 1997-034D
Perigee: 183.3 km
Apogee: 346.5 km
Inclination: 86.4 °
Period: 89.7 minutes
Semi major axis: 6635 km
RCS: 3.8649 m2 (large)
Launch date: July 9, 1997
Source: United States (US)
Launch site: AIR FORCE WESTERN TEST RANGE (AFWTR)
aabbcc
Your satellite tracking list
Your tracking list is empty




NASA's NSSDC Master Catalog

Two Line Element Set (TLE):
1 24872U 97034D   18226.81847296  .01374502 -14846-5  65824-3 0  9999
2 24872  86.3617 198.0944 0123002  86.7987 274.7367 16.06020523105708
Source of the keplerian elements: AFSPC